Regional Weather Roundup
Issued by NWS

Home | Current Version | Previous Version | Graphics & Text | Print | Product List | Glossary Off
Versions: 1 2 3 4 5 6 7 8 9 10 11 12 13 14 15 16 17 18 19 20 21 22 23 24 25 26 27 28 29 30 31 32 33 34 35 36 37 38 39 40 41 42 43 44 45 46 47 48 49 50

000
ASUS43 KTOP 262159
RWRKS

WEATHER ROUNDUP FOR KANSAS
NATIONAL WEATHER SERVICE GOODLAND KS
500 PM CDT TUE MAY 26 2015

NOTE:  "FAIR" INDICATES FEW OR NO CLOUDS BELOW 12,000 FEET WITH NO
SIGNIFICANT WEATHER AND/OR OBSTRUCTIONS TO VISIBILITY.

KSZ001>006-013>018-027>032-041>047-262300-
NORTHWEST KANSAS

CITY           SKY/WX    TMP DP  RH WIND       PRES   REMARKS
GOODLAND       CLOUDY    72  50  45 VRB6      29.99F
HAYS           PTSUNNY   75  54  46 NW7       29.95S
HILL CITY      PTSUNNY   72  54  53 N10         N/A
RUSSELL        PTSUNNY   76  54  46 NW7       29.92F
$$

KSZ061>065-074>080-084>089-262300-
SOUTHWEST KANSAS

CITY           SKY/WX    TMP DP  RH WIND       PRES   REMARKS
DODGE CITY     PTSUNNY   78  52  40 N7        29.97S
ELKHART          N/A     78  50  37 NE5         N/A
GARDEN CITY    SUNNY     75  49  39 CALM      29.97F
GREAT BEND     MOSUNNY   75  55  50 NW7       29.94S
LIBERAL        MOSUNNY   77  52  41 E9        29.99F
$$

KSZ066>073-081>083-090>101-262300-
SOUTHEAST KANSAS

CITY           SKY/WX    TMP DP  RH WIND       PRES   REMARKS
CHANUTE        MOSUNNY   81  62  52 S14       29.92F
COFFEYVILLE    SUNNY     76  65  68 S12       29.94S
HUTCHINSON     SUNNY     81  56  42 W7        29.93S
NEWTON         MOSUNNY   79  55  44 NW6       29.95S
PARSONS        MOSUNNY   78  64  61 S9        29.95S
WICHITA INTL   MOSUNNY   80  56  43 SW6       29.91F
WICHITA JABRA  CLOUDY    79  56  45 NW8       29.92F
WINFIELD       CLOUDY    77  62  59 S13       29.95R
$$

KSZ007>012-019>026-033>040-048>060-102>105-262300-
NORTHEAST KANSAS

CITY           SKY/WX    TMP DP  RH WIND       PRES   REMARKS
CONCORDIA      PTSUNNY   74  55  51 NW16G22   29.92R
EMPORIA        MOSUNNY   77  56  48 W12G18    29.91F
LAWRENCE       MOSUNNY   78  58  49 W15       29.88F
MANHATTAN      PTSUNNY   75  59  57 W7        29.90F
OLATHE IND     PTSUNNY   78  60  53 W13       29.90S
OLATHE EXE     PTSUNNY   77  60  55 W15       29.89S
SALINA         MOSUNNY   79  56  45 W9        29.92F
TOPEKA BILLARD PTSUNNY   78  59  51 W12G20    29.88F
TOPEKA FORBES  MOSUNNY   79  58  48 W15       29.89F
$$



USA.gov is the U.S. government's official web portal to all federal, state and local government web resources and services.